FW0014 Weather Reports


time (UTC)temp
F
wind
direction
speed
knots
gust
knots
rain 1hr
in
rain 24hr
in
rain mn
in
humidity
%
barometer
mb
20240613041010 75 149 0.9 1.7 0.00 0.15 0.15 87 1014.2
20240613040831 75 149 0.9 1.7 0.00 0.15 0.15 87 1016.5
20240613040546 75 149 0.0 1.7 0.00 0.15 0.15 87 1014.2
20240613040331 75 149 0.9 1.7 0.00 0.15 0.15 87 1016.5
20240613040046 75 149 0.0 1.7 0.00 0.15 0.15 87 1014.2
20240613035829 76 149 0.0 1.7 0.00 0.15 0.15 87 1016.5
20240613035542 75 149 0.0 1.7 0.00 0.15 0.15 87 1014.2
20240613035329 76 149 0.0 1.7 0.00 0.15 0.15 87 1016.5
20240613035036 75 149 0.0 2.6 0.00 0.15 0.15 87 1014.2
20240613034825 76 149 0.9 2.6 0.00 0.15 0.15 87 1016.4
20240613034532 75 149 0.9 2.6 0.00 0.15 0.15 87 1014.1
20240613034341 76 149 0.9 2.6 0.00 0.15 0.15 86 1016.3
20240613034056 75 127 0.9 2.6 0.00 0.15 0.15 86 1014.0
20240613033816 76 126 0.9 2.6 0.00 0.15 0.15 86 1016.2
20240613033548 76 102 0.9 2.6 0.00 0.15 0.15 86 1013.9
20240613033331 76 129 0.9 2.6 0.00 0.15 0.15 86 1016.1
20240613033013 76 102 0.9 3.5 0.00 0.15 0.15 86 1013.9
20240613032825 76 103 1.7 3.5 0.00 0.15 0.15 85 1016.0
20240613032600 76 116 1.7 3.5 0.00 0.15 0.15 86 1013.8
20240613032322 76 117 0.9 2.6 0.00 0.15 0.15 85 1016.0
20240613032054 76 118 0.9 2.6 0.00 0.15 0.15 85 1013.7
20240613031819 76 111 1.7 2.6 0.00 0.15 0.15 85 1016.0
20240613031546 76 138 0.9 2.6 0.00 0.15 0.15 85 1013.7
20240613031316 76 137 1.7 2.6 0.00 0.15 0.15 85 1015.9
20240613031040 76 138 0.9 2.6 0.00 0.15 0.15 85 1013.5
20240613030848 77 138 0.9 2.6 0.00 0.15 0.15 84 1015.8
20240613030509 76 127 0.9 2.6 0.00 0.15 0.15 84 1013.4
20240613030323 77 127 1.7 3.5 0.00 0.15 0.15 84 1015.7
20240613030102 76 127 0.9 3.5 0.00 0.15 0.15 84 1013.4
20240613025820 77 127 0.9 3.5 0.00 0.15 0.15 84 1015.6
20240613025553 76 127 0.9 3.5 0.00 0.15 0.15 84 1013.2
20240613025337 77 127 0.9 2.6 0.00 0.15 0.15 84 1015.6
20240613025026 77 127 1.7 3.5 0.00 0.15 0.15 84 1013.4
20240613024833 77 127 1.7 3.5 0.00 0.15 0.15 83 1015.6
20240613024515 77 114 0.9 3.5 0.00 0.15 0.15 83 1013.1
20240613024329 77 104 1.7 3.5 0.00 0.15 0.15 83 1015.4
20240613024006 77 116 0.9 3.5 0.00 0.15 0.15 83 1013.2
20240613023822 78 116 1.7 3.5 0.00 0.15 0.15 83 1015.5
20240613023540 77 116 0.9 3.5 0.00 0.15 0.15 82 1013.2
20240613023320 78 116 1.7 3.5 0.00 0.15 0.15 82 1015.4
20240613023038 77 116 0.9 2.6 0.00 0.15 0.15 82 1013.1
20240613022840 78 116 0.9 2.6 0.00 0.15 0.15 82 1015.4
20240613022556 78 116 0.9 2.6 0.00 0.15 0.15 82 1013.1
20240613022318 78 116 1.7 2.6 0.00 0.15 0.15 81 1015.4
20240613022053 78 116 0.9 2.6 0.00 0.15 0.15 81 1013.1
20240613021816 78 116 1.7 2.6 0.00 0.15 0.15 81 1015.3
20240613021541 78 116 0.9 2.6 0.00 0.15 0.15 81 1013.0
20240613021327 79 116 0.9 2.6 0.00 0.15 0.15 81 1015.2
20240613021032 78 116 0.9 2.6 0.00 0.15 0.15 80 1013.0
20240613020823 79 116 0.9 2.6 0.00 0.15 0.15 80 1015.3
20240613020522 78 116 0.9 2.6 0.00 0.15 0.15 80 1012.9
20240613020339 79 116 0.9 2.6 0.00 0.15 0.15 79 1015.3
20240613020053 78 116 0.9 3.5 0.00 0.15 0.15 79 1012.9
20240613015814 79 116 1.7 3.5 0.00 0.15 0.15 79 1015.3
20240613015540 79 116 0.9 3.5 0.00 0.15 0.15 79 1013.0
20240613015331 79 116 1.7 3.5 0.00 0.15 0.15 79 1015.3
20240613015032 79 116 0.9 3.5 0.00 0.15 0.15 78 1013.0
20240613014825 79 116 0.9 3.5 0.00 0.15 0.15 78 1015.4
20240613014528 79 116 0.9 3.5 0.00 0.15 0.15 78 1012.9
20240613014322 80 116 0.9 2.6 0.00 0.15 0.15 78 1015.3
20240613014028 79 116 0.9 2.6 0.00 0.15 0.15 78 1013.0
20240613013818 80 116 0.9 2.6 0.00 0.15 0.15 77 1015.3
20240613013554 80 116 0.9 2.6 0.00 0.15 0.15 77 1012.8
20240613013318 80 116 1.7 5.2 0.00 0.15 0.15 77 1015.3
20240613013046 80 82 0.9 5.2 0.00 0.15 0.15 77 1012.9
20240613012816 81 80 1.7 5.2 0.00 0.15 0.15 77 1015.2
20240613012516 80 84 1.7 5.2 0.00 0.15 0.15 76 1012.9
20240613012315 81 99 1.7 3.5 0.00 0.15 0.15 76 1015.3
20240613012103 81 99 0.9 3.5 0.00 0.15 0.15 76 1012.9
20240613011816 81 99 1.7 5.2 0.00 0.15 0.15 76 1015.2
20240613011554 81 85 0.9 5.2 0.00 0.15 0.15 76 1012.9
20240613011316 82 80 1.7 5.2 0.00 0.15 0.15 76 1015.2
20240613011046 81 100 1.7 7.0 0.00 0.15 0.15 75 1012.8
20240613010817 82 110 2.6 7.0 0.00 0.15 0.15 75 1015.3
20240613010536 82 91 2.6 7.0 0.00 0.15 0.15 75 1013.0
20240613010331 82 100 3.5 7.0 0.00 0.15 0.15 75 1015.3
20240613010056 82 61 2.6 7.8 0.00 0.15 0.15 76 1012.9
20240613005831 83 83 1.7 7.8 0.00 0.15 0.15 75 1015.3
20240613005546 82 99 4.3 7.8 0.00 0.15 0.15 75 1012.9
20240613005330 83 106 2.6 7.0 0.00 0.15 0.15 75 1015.1
20240613005035 82 76 2.6 7.0 0.00 0.15 0.15 76 1012.9
20240613004831 83 106 1.7 3.5 0.00 0.15 0.15 76 1015.1
20240613004527 82 145 0.9 3.5 0.00 0.15 0.15 75 1012.8
20240613004346 83 145 1.7 3.5 0.00 0.15 0.15 75 1015.2
20240613004050 82 77 0.9 3.5 0.00 0.15 0.15 76 1012.9
20240613003822 83 134 1.7 3.5 0.00 0.15 0.15 76 1015.1
20240613003546 82 108 0.0 7.0 0.00 0.15 0.15 76 1012.8
20240613003320 83 128 1.7 7.0 0.00 0.15 0.15 75 1015.0
20240613003040 82 89 2.6 7.0 0.00 0.15 0.15 75 1012.8
20240613002816 83 107 2.6 7.0 0.00 0.15 0.15 74 1015.1
20240613002541 83 106 3.5 7.0 0.00 0.15 0.15 74 1012.8
20240613002331 83 108 2.6 8.7 0.00 0.15 0.15 74 1015.0
20240613002036 83 127 3.5 9.6 0.00 0.15 0.15 73 1012.9
20240613001828 84 137 3.5 9.6 0.00 0.15 0.15 73 1015.1
20240613001532 83 91 4.3 9.6 0.00 0.15 0.15 73 1012.8
20240613001325 84 109 3.5 7.0 0.00 0.15 0.15 73 1015.1
20240613001025 83 79 1.7 6.1 0.00 0.15 0.15 73 1012.9
20240613000844 84 125 2.6 5.2 0.00 0.15 0.15 73 1015.0
20240613000546 83 128 1.7 5.2 0.00 0.15 0.15 72 1012.8
20240613000325 84 135 1.7 5.2 0.00 0.15 0.15 72 1015.1
20240613000035 84 89 2.6 8.7 0.00 0.15 0.15 72 1012.9
20240612235822 84 79 2.6 8.7 0.00 0.15 0.15 72 1015.0
20240612235527 84 73 2.6 8.7 0.00 0.15 0.15 72 1012.8
20240612235322 84 126 5.2 9.6 0.00 0.15 0.15 72 1015.0
20240612235003 84 120 3.5 9.6 0.00 0.15 0.15 72 1012.8
20240612234815 85 111 4.3 9.6 0.00 0.15 0.15 72 1015.1
20240612234543 84 99 5.2 9.6 0.00 0.15 0.15 71 1012.8
20240612234315 85 56 4.3 7.8 0.00 0.15 0.15 70 1015.0
20240612234029 84 112 3.5 7.8 0.00 0.15 0.15 69 1012.7
20240612233814 85 100 4.3 7.8 0.00 0.15 0.15 68 1015.0
20240612233517 85 102 1.7 7.8 0.00 0.15 0.15 70 1012.7
20240612233314 85 87 2.6 7.8 0.00 0.15 0.15 68 1014.9
20240612233105 85 79 2.6 7.8 0.00 0.15 0.15 68 1012.7
20240612232814 85 63 3.5 7.8 0.00 0.15 0.15 68 1015.0
20240612232553 85 58 2.6 7.0 0.00 0.15 0.15 68 1012.7
20240612232400 85 38 2.6 6.1 0.00 0.15 0.15 68 1014.9
20240612232028 85 71 3.5 7.0 0.00 0.15 0.15 69 1012.7
20240612231833 85 75 2.6 7.0 0.00 0.15 0.15 69 1015.0
20240612231516 85 44 3.5 7.8 0.00 0.15 0.15 66 1012.7
20240612231329 85 32 4.3 7.8 0.00 0.15 0.15 67 1014.9
20240612231010 85 52 3.5 7.8 0.00 0.15 0.15 68 1012.7
20240612230829 85 79 4.3 7.8 0.00 0.15 0.15 67 1014.9
20240612230606 85 349 4.3 7.8 0.00 0.15 0.15 67 1012.8
20240612230329 85 74 5.2 7.8 0.00 0.15 0.15 67 1015.0
20240612230052 85 359 2.6 5.2 0.00 0.15 0.15 68 1012.9
20240612225826 85 54 2.6 5.2 0.00 0.15 0.15 68 1015.0
20240612225514 85 53 0.9 5.2 0.00 0.15 0.15 71 1012.8
20240612225325 85 129 1.7 7.0 0.00 0.15 0.15 70 1015.0
20240612225006 85 45 2.6 7.0 0.00 0.15 0.15 70 1012.8
20240612224824 85 80 2.6 7.0 0.00 0.15 0.15 71 1015.0
20240612224601 84 101 1.7 7.0 0.00 0.15 0.15 71 1012.8
20240612224324 85 95 2.6 9.6 0.00 0.15 0.15 71 1015.1
20240612224050 85 110 1.7 9.6 0.00 0.15 0.15 72 1012.8
20240612223824 85 56 3.5 9.6 0.00 0.15 0.15 71 1015.1
20240612223540 85 104 3.5 7.8 0.00 0.15 0.15 71 1012.9
20240612223324 85 96 1.7 5.2 0.00 0.15 0.15 70 1015.3
20240612223034 85 68 1.7 5.2 0.00 0.15 0.15 70 1013.0
20240612222823 85 64 1.7 7.0 0.00 0.15 0.15 70 1015.3
20240612222529 84 120 0.9 8.7 0.00 0.15 0.15 70 1013.0
20240612222323 85 95 1.7 8.7 0.00 0.15 0.15 69 1015.4
20240612222024 85 79 4.3 8.7 0.00 0.15 0.15 69 1013.2
20240612221843 85 44 4.3 7.8 0.00 0.15 0.15 69 1015.4
20240612221558 85 58 2.6 6.1 0.00 0.15 0.15 68 1013.2
20240612221322 86 108 2.6 5.2 0.00 0.15 0.15 70 1015.4
20240612221047 85 64 3.5 5.2 0.00 0.15 0.15 69 1013.2
20240612220821 85 58 2.6 6.1 0.00 0.15 0.15 68 1015.5
20240612220536 85 85 0.9 4.3 0.00 0.15 0.15 67 1013.2
20240612220320 85 84 0.9 4.3 0.00 0.15 0.15 67 1015.4
20240612220026 84 66 0.9 7.8 0.00 0.15 0.15 68 1013.3
20240612215818 85 66 2.6 8.7 0.00 0.15 0.15 68 1015.5
20240612215520 84 79 2.6 8.7 0.00 0.15 0.15 68 1013.3
20240612215337 85 96 4.3 8.7 0.00 0.15 0.15 68 1015.5
20240612215058 84 66 2.6 7.8 0.00 0.15 0.15 71 1013.4
20240612214831 85 97 3.5 6.1 0.00 0.15 0.15 69 1015.6
20240612214550 84 42 1.7 6.1 0.00 0.15 0.15 72 1013.4
20240612214351 84 89 0.9 6.1 0.00 0.15 0.15 71 1015.6
20240612214012 84 40 2.6 6.1 0.00 0.15 0.15 73 1013.4
20240612213827 84 45 3.5 6.1 0.00 0.15 0.15 71 1015.6
20240612213544 83 89 1.7 5.2 0.00 0.15 0.15 73 1013.4
20240612213326 84 289 1.7 5.2 0.00 0.15 0.15 71 1015.6
20240612213036 83 59 0.9 6.1 0.00 0.15 0.15 71 1013.4
20240612212845 84 53 2.6 6.1 0.00 0.15 0.15 71 1015.7
20240612212604 83 104 2.6 6.1 0.00 0.15 0.15 73 1013.5
20240612212342 84 63 3.5 6.1 0.00 0.15 0.15 73 1015.8
20240612212031 83 117 2.6 4.3 0.00 0.15 0.15 75 1013.5
20240612211820 83 77 2.6 5.2 0.00 0.15 0.15 73 1015.8
20240612211527 83 102 2.6 5.2 0.00 0.15 0.15 74 1013.6
20240612211335 83 91 2.6 5.2 0.00 0.15 0.15 74 1015.9
20240612211051 83 76 2.6 5.2 0.00 0.15 0.15 74 1013.9
20240612210833 83 36 3.5 5.2 0.00 0.15 0.15 75 1016.1
20240612210545 82 64 0.9 5.2 0.00 0.15 0.15 75 1014.0
20240612210330 83 68 1.7 5.2 0.00 0.15 0.15 77 1016.1
20240612210036 82 16 0.9 7.0 0.00 0.15 0.15 76 1014.0
20240612205850 82 87 3.5 7.0 0.00 0.17 0.15 75 1016.2
20240612205559 82 64 2.6 7.0 0.00 0.17 0.15 75 1014.1
20240612205327 82 65 3.5 7.0 0.00 0.17 0.15 77 1016.3
20240612205052 82 346 1.7 7.8 0.00 0.17 0.15 76 1014.1
20240612204826 82 60 3.5 7.8 0.00 0.17 0.15 76 1016.4
20240612204546 82 106 1.7 7.8 0.00 0.17 0.15 76 1014.2
20240612204344 82 14 4.3 7.8 0.00 0.17 0.15 76 1016.3
20240612204008 81 147 0.9 3.5 0.00 0.17 0.15 76 1014.2
20240612203842 82 110 1.7 4.3 0.00 0.17 0.15 76 1016.4
20240612203540 81 91 1.7 4.3 0.00 0.17 0.15 76 1014.2
20240612203318 81 282 0.9 5.2 0.00 0.17 0.15 78 1016.4
20240612203001 80 10 1.7 5.2 0.00 0.17 0.15 77 1014.3
20240612202818 81 72 2.6 7.0 0.00 0.17 0.15 76 1016.4
20240612202557 80 16 3.5 7.0 0.00 0.17 0.15 75 1014.3
20240612202318 81 147 3.5 7.0 0.00 0.17 0.15 75 1016.5
20240612202055 80 53 2.6 6.1 0.00 0.17 0.15 76 1014.3
20240612201818 81 354 0.9 4.3 0.00 0.17 0.15 77 1016.5
20240612201555 80 354 2.6 7.0 0.00 0.17 0.15 77 1014.4
20240612201317 80 171 0.9 7.0 0.00 0.17 0.15 77 1016.6
20240612201043 80 19 3.5 7.0 0.00 0.17 0.15 77 1014.5
20240612200814 80 354 3.5 7.0 0.00 0.17 0.15 77 1016.6
20240612200535 80 297 2.6 4.3 0.00 0.17 0.15 79 1014.5
20240612200323 80 359 3.5 4.3 0.00 0.17 0.15 79 1016.6
20240612200059 79 359 0.9 7.0 0.00 0.21 0.15 83 1014.5
20240612195818 79 305 1.7 7.0 0.00 0.21 0.15 80 1016.7
20240612195554 79 85 2.6 7.0 0.00 0.21 0.15 80 1014.6
20240612195315 79 8 3.5 7.0 0.00 0.21 0.15 81 1016.8
20240612195043 79 9 3.5 7.0 0.00 0.21 0.15 79 1014.7
20240612194830 79 359 2.6 7.0 0.00 0.21 0.15 83 1016.7
20240612194539 78 330 0.9 7.0 0.00 0.21 0.15 82 1014.6
20240612194327 79 334 4.3 7.0 0.00 0.21 0.15 80 1016.7
20240612194033 78 354 2.6 7.0 0.00 0.21 0.15 82 1014.7
20240612193822 79 22 4.3 7.0 0.00 0.21 0.15 84 1016.9
20240612193526 78 26 0.9 5.2 0.00 0.21 0.15 85 1014.7
20240612193318 78 73 0.9 5.2 0.00 0.21 0.15 83 1016.9
20240612193026 77 4 3.5 5.2 0.00 0.21 0.15 83 1014.9
20240612192816 78 335 3.5 5.2 0.00 0.21 0.15 82 1017.0
20240612192512 77 77 1.7 4.3 0.00 0.21 0.15 83 1014.9
20240612192334 78 45 1.7 4.3 0.00 0.21 0.15 85 1017.1
20240612192151 77 272 1.7 4.3 0.00 0.21 0.15 85 1017.0
20240612191513 76 4 2.6 4.3 0.00 0.21 0.15 88 1015.0
20240612191326 77 305 2.6 4.3 0.00 0.21 0.15 89 1017.2
20240612191007 76 318 2.6 4.3 0.00 0.21 0.15 88 1015.1
20240612190824 76 354 2.6 4.3 0.00 0.21 0.15 89 1017.2
20240612190509 76 320 2.6 4.3 0.00 0.21 0.15 89 1015.1
20240612190322 76 359 2.6 4.3 0.00 0.21 0.15 90 1017.3
20240612190053 76 313 1.7 5.2 0.00 0.21 0.15 90 1015.2
20240612185820 76 341 2.6 5.2 0.00 0.21 0.15 91 1017.3
20240612185516 75 298 2.6 5.2 0.00 0.21 0.15 90 1015.1
20240612185001 75 350 1.7 4.3 0.00 0.21 0.15 90 1015.3
20240612184833 76 359 1.7 4.3 0.00 0.21 0.15 89 1017.4
20240612184557 75 4 2.6 4.3 0.00 0.21 0.15 90 1015.4
20240612184351 76 317 2.6 4.3 0.00 0.21 0.15 91 1017.5
20240612184027 75 359 1.7 4.3 0.00 0.21 0.15 91 1015.4
20240612183829 75 341 2.6 3.5 0.00 0.21 0.15 92 1017.5
20240612183526 75 22 0.9 2.6 0.00 0.21 0.15 93 1015.4
20240612183326 75 186 0.9 2.6 0.00 0.21 0.15 92 1017.6
20240612183008 75 185 0.9 2.6 0.00 0.21 0.15 92 1015.7
20240612182822 75 186 0.9 3.5 0.00 0.21 0.15 92 1017.8
20240612182605 74 187 0.9 5.2 0.00 0.21 0.15 93 1015.7
20240612182319 75 101 1.7 7.0 0.00 0.21 0.15 92 1017.7
20240612182053 74 156 2.6 7.0 0.00 0.21 0.15 92 1015.6
20240612181815 75 173 3.5 7.0 0.01 0.21 0.15 93 1017.7
20240612181519 74 158 4.3 7.0 0.01 0.21 0.15 93 1015.6
20240612181332 75 173 3.5 6.1 0.01 0.21 0.15 94 1017.7
20240612181026 74 163 2.6 7.0 0.01 0.21 0.15 94 1015.6
20240612180845 75 142 3.5 6.1 0.01 0.21 0.15 94 1017.7
20240612180552 74 154 2.6 6.1 0.01 0.21 0.15 94 1015.7
20240612180321 74 131 3.5 6.1 0.01 0.21 0.15 94 1017.7
20240612180025 74 112 3.5 6.1 0.01 0.21 0.15 94 1015.8
20240612175819 74 106 2.6 5.2 0.01 0.21 0.15 94 1018.1
20240612175527 73 149 1.7 4.3 0.02 0.21 0.15 95 1016.1
20240612175315 74 149 2.6 3.5 0.03 0.21 0.15 95 1018.4
20240612175016 73 149 0.9 3.5 0.05 0.21 0.15 95 1016.4
20240612174815 73 148 1.7 3.5 0.08 0.21 0.15 94 1018.5
20240612174602 73 149 1.7 3.5 0.09 0.21 0.15 95 1016.5
20240612174315 73 162 1.7 3.5 0.09 0.21 0.15 95 1018.6
20240612174053 73 114 1.7 3.5 0.09 0.21 0.15 95 1016.7
20240612173815 73 211 0.9 2.6 0.09 0.21 0.15 95 1018.7
20240612173546 72 211 0.0 2.6 0.09 0.21 0.15 95 1016.7
20240612173314 73 211 0.9 2.6 0.09 0.21 0.15 95 1018.8
20240612173035 72 212 0.9 4.3 0.09 0.21 0.15 95 1016.7
20240612172853 73 211 1.7 4.3 0.09 0.21 0.15 95 1018.7
20240612172600 72 212 1.7 5.2 0.09 0.21 0.15 95 1016.7
20240612172352 73 195 2.6 6.1 0.09 0.21 0.15 95 1018.9
20240612172031 72 197 2.6 6.1 0.09 0.21 0.15 95 1016.8
20240612171830 72 197 3.5 6.1 0.08 0.20 0.14 95 1018.8
20240612171511 72 160 3.5 6.1 0.08 0.20 0.14 95 1016.7
20240612171329 72 161 4.3 6.1 0.08 0.20 0.14 95 1018.7
20240612171008 72 139 4.3 7.0 0.08 0.20 0.14 95 1016.7
20240612170825 72 152 4.3 7.0 0.08 0.20 0.14 95 1018.8
20240612170537 72 150 4.3 7.0 0.08 0.20 0.14 95 1016.8
20240612170322 72 139 2.6 7.0 0.08 0.20 0.14 95 1018.8
20240612170033 72 162 0.9 6.1 0.08 0.20 0.14 95 1016.8
20240612165819 72 68 1.7 6.1 0.08 0.20 0.14 95 1018.8
20240612165532 72 139 2.6 6.1 0.07 0.19 0.13 95 1016.7
20240612165316 72 90 3.5 6.1 0.06 0.18 0.12 95 1018.9
20240612165023 72 95 1.7 4.3 0.03 0.15 0.10 95 1016.9
20240612164816 72 60 1.7 4.3 0.01 0.13 0.07 95 1018.9
20240612164607 72 59 2.6 5.2 0.00 0.12 0.06 95 1016.9
20240612164321 73 72 1.7 6.1 0.00 0.12 0.06 95 1018.8
20240612164043 72 154 1.7 7.0 0.00 0.12 0.06 95 1016.7
20240612163821 73 147 2.6 7.0 0.00 0.12 0.06 95 1018.7
20240612163535 72 116 2.6 7.0 0.00 0.12 0.06 95 1016.7
20240612163341 72 127 2.6 7.0 0.00 0.12 0.06 95 1018.7
20240612163059 72 134 2.6 7.0 0.00 0.12 0.06 95 1016.7
20240612162819 72 79 2.6 7.0 0.00 0.12 0.06 95 1018.7
20240612162529 72 92 1.7 7.0 0.00 0.12 0.06 95 1016.6
20240612162319 72 89 3.5 7.0 0.00 0.12 0.06 95 1018.8
20240612162021 72 91 2.6 5.2 0.00 0.12 0.06 95 1016.7
20240612161820 72 101 1.7 5.2 0.01 0.12 0.06 95 1018.8
20240612161505 72 68 2.6 7.0 0.01 0.12 0.06 95 1016.6
20240612161320 73 75 3.5 7.0 0.01 0.12 0.06 95 1018.7
20240612161103 72 74 2.6 7.0 0.01 0.12 0.06 95 1016.5
20240612160819 73 92 4.3 7.0 0.01 0.12 0.06 95 1018.5
20240612160518 72 126 3.5 7.0 0.01 0.12 0.06 95 1016.4
20240612160318 73 110 1.7 6.1 0.01 0.12 0.06 95 1018.5
20240612160010 72 131 1.7 6.1 0.01 0.12 0.06 95 1016.4
20240612155856 73 96 2.6 6.1 0.01 0.12 0.06 95 1018.5
20240612155545 72 123 1.7 5.2 0.01 0.12 0.06 95 1016.3
20240612155334 73 133 1.7 5.2 0.01 0.12 0.06 95 1018.5
20240612155041 72 105 2.6 6.1 0.01 0.12 0.06 95 1016.3
20240612154834 72 118 3.5 6.1 0.01 0.12 0.06 95 1018.4
20240612154537 72 65 2.6 5.2 0.01 0.12 0.06 95 1016.3
20240612154355 73 96 1.7 5.2 0.01 0.12 0.06 95 1018.3
20240612154101 72 124 0.9 5.2 0.01 0.12 0.06 95 1016.3
20240612153834 72 87 2.6 5.2 0.01 0.12 0.06 95 1018.4
20240612153551 72 102 1.7 5.2 0.01 0.12 0.06 95 1016.3
20240612153334 72 83 1.7 5.2 0.01 0.12 0.06 95 1018.4
20240612153039 72 83 1.7 6.1 0.01 0.12 0.06 95 1016.2
20240612152849 72 86 1.7 6.1 0.01 0.12 0.06 95 1018.4
20240612152601 72 123 1.7 6.1 0.01 0.12 0.06 95 1016.3
20240612152329 72 114 4.3 6.1 0.01 0.12 0.06 95 1018.3
20240612152052 72 102 2.6 6.1 0.01 0.12 0.06 95 1016.2
20240612151828 72 124 1.7 4.3 0.00 0.11 0.05 95 1018.2
20240612151516 72 153 1.7 5.2 0.00 0.11 0.05 95 1016.1
20240612151326 72 96 1.7 5.2 0.00 0.11 0.05 95 1018.2
20240612151007 72 84 0.9 3.5 0.00 0.11 0.05 95 1016.1
20240612150826 72 154 0.9 2.6 0.00 0.11 0.05 95 1018.3
20240612150601 72 154 0.9 2.6 0.00 0.11 0.05 95 1016.2
20240612150326 72 154 0.9 1.7 0.00 0.11 0.05 95 1018.3
20240612150053 72 154 0.9 2.6 0.00 0.11 0.05 95 1016.2
20240612145826 72 154 0.9 2.6 0.00 0.11 0.05 95 1018.3
20240612145550 72 154 0.9 2.6 0.00 0.11 0.05 95 1016.2
20240612145325 72 154 0.0 2.6 0.00 0.11 0.05 95 1018.3
20240612145043 72 154 0.0 3.5 0.00 0.11 0.05 95 1016.2
20240612144822 72 155 0.9 4.3 0.00 0.11 0.05 95 1018.2
20240612144537 72 104 0.9 4.3 0.00 0.11 0.05 95 1016.1
20240612144322 72 127 2.6 4.3 0.00 0.11 0.05 95 1018.2
20240612144029 72 149 2.6 7.0 0.00 0.11 0.05 95 1016.0
20240612143821 72 104 1.7 7.0 0.00 0.11 0.05 95 1018.2
20240612143522 71 110 2.6 7.0 0.00 0.11 0.05 95 1016.1
20240612143319 72 65 3.5 7.0 0.00 0.11 0.05 95 1018.2
20240612143046 71 94 1.7 5.2 0.00 0.11 0.05 95 1016.0
20240612142818 72 118 1.7 4.3 0.00 0.11 0.05 95 1018.2
20240612142537 71 76 2.6 4.3 0.00 0.11 0.05 95 1016.1
20240612142318 72 87 1.7 5.2 0.00 0.11 0.05 95 1018.1
20240612142029 72 100 0.9 5.2 0.00 0.11 0.05 95 1016.0
20240612141839 72 154 1.7 5.2 0.00 0.11 0.05 95 1018.1
20240612141555 71 118 1.7 3.5 0.00 0.11 0.05 95 1015.9
20240612141339 72 106 1.7 3.5 0.00 0.11 0.05 95 1018.1
20240612141026 71 105 1.7 5.2 0.00 0.11 0.05 95 1016.0
20240612140836 72 106 1.7 5.2 0.00 0.11 0.05 95 1018.1